Time,TemperatureF,DewpointF,PressureIn,WindDirection,WindDirectionDegrees,WindSpeedMPH,WindSpeedGustMPH,Humidity,HourlyPrecipIn,Conditions,Clouds,dailyrainin,SoftwareType,DateUTC
2013-02-08 00:00:00,37.9,28.3,0.00,North,0,0.0,0.0,68,0.00,,,0.00,WUHU21623XXSP,2013-02-08 05:00:00,
2013-02-08 00:01:00,37.9,28.3,0.00,North,0,0.0,0.0,68,0.00,,,0.00,WUHU21623XXSP,2013-02-08 05:01:00,
2013-02-08 00:06:00,37.9,28.3,0.00,North,0,0.0,0.0,68,0.00,,,0.00,WUHU21623XXSP,2013-02-08 05:06:00,
2013-02-08 00:11:00,37.8,28.1,0.00,North,0,0.0,0.0,68,0.00,,,0.00,WUHU21623XXSP,2013-02-08 05:11:00,
2013-02-08 00:16:00,37.6,28.0,0.00,North,0,0.0,0.0,69,0.00,,,0.00,WUHU21623XXSP,2013-02-08 05:16:00,
2013-02-08 00:21:00,37.6,28.4,0.00,North,0,0.0,0.0,69,0.00,,,0.00,WUHU21623XXSP,2013-02-08 05:21:00,
2013-02-08 00:26:00,37.4,28.6,0.00,North,0,0.0,0.0,70,0.00,,,0.00,WUHU21623XXSP,2013-02-08 05:26:00,
2013-02-08 00:31:00,37.2,28.4,0.00,North,0,0.0,0.0,70,0.00,,,0.00,WUHU21623XXSP,2013-02-08 05:31:00,
2013-02-08 00:36:00,37.2,28.7,0.00,North,0,0.0,0.0,71,0.00,,,0.00,WUHU21623XXSP,2013-02-08 05:36:00,
2013-02-08 00:41:00,37.2,28.4,0.00,North,0,0.0,0.0,70,0.00,,,0.00,WUHU21623XXSP,2013-02-08 05:41:00,
2013-02-08 00:46:00,37.0,28.5,0.00,North,0,0.0,0.0,71,0.00,,,0.00,WUHU21623XXSP,2013-02-08 05:46:00,
2013-02-08 00:51:00,36.9,28.4,0.00,North,0,0.0,0.0,71,0.00,,,0.00,WUHU21623XXSP,2013-02-08 05:51:00,
2013-02-08 00:56:00,36.9,28.4,0.00,North,0,0.0,0.0,71,0.00,,,0.00,WUHU21623XXSP,2013-02-08 05:56:00,
2013-02-08 01:01:00,36.7,28.5,0.00,North,0,0.0,0.0,72,0.00,,,0.00,WUHU21623XXSP,2013-02-08 06:01:00,
2013-02-08 01:06:00,36.5,28.3,0.00,North,0,0.0,0.0,72,0.00,,,0.00,WUHU21623XXSP,2013-02-08 06:06:00,
2013-02-08 01:11:00,36.3,28.1,0.00,North,0,0.0,0.0,72,0.00,,,0.00,WUHU21623XXSP,2013-02-08 06:11:00,
2013-02-08 01:16:00,36.1,28.3,0.00,North,0,0.0,0.0,73,0.00,,,0.00,WUHU21623XXSP,2013-02-08 06:16:00,
2013-02-08 01:21:00,36.0,28.1,0.00,North,0,0.0,0.0,73,0.00,,,0.00,WUHU21623XXSP,2013-02-08 06:21:00,
2013-02-08 01:26:00,36.0,28.1,0.00,North,0,0.0,0.0,73,0.00,,,0.00,WUHU21623XXSP,2013-02-08 06:26:00,
2013-02-08 01:31:00,35.8,28.3,0.00,North,0,0.0,0.0,74,0.00,,,0.00,WUHU21623XXSP,2013-02-08 06:31:00,
2013-02-08 01:36:00,35.6,28.1,0.00,North,0,0.0,0.0,74,0.00,,,0.00,WUHU21623XXSP,2013-02-08 06:36:00,
2013-02-08 01:41:00,35.4,27.9,0.00,North,0,0.0,0.0,74,0.00,,,0.00,WUHU21623XXSP,2013-02-08 06:41:00,
2013-02-08 01:46:00,35.4,27.9,0.00,North,0,0.0,0.0,74,0.00,,,0.00,WUHU21623XXSP,2013-02-08 06:46:00,
2013-02-08 01:51:00,35.4,27.9,0.00,North,0,0.0,0.0,74,0.00,,,0.00,WUHU21623XXSP,2013-02-08 06:51:00,
2013-02-08 01:56:00,35.2,27.9,0.00,North,0,0.0,0.0,74,0.00,,,0.00,WUHU21623XXSP,2013-02-08 06:56:00,
2013-02-08 02:01:00,35.2,28.0,0.00,North,0,0.0,0.0,75,0.00,,,0.00,WUHU21623XXSP,2013-02-08 07:01:00,
2013-02-08 02:06:00,35.2,28.0,0.00,North,0,0.0,0.0,75,0.00,,,0.00,WUHU21623XXSP,2013-02-08 07:06:00,
2013-02-08 02:11:00,35.1,27.9,0.00,North,0,0.0,0.0,75,0.00,,,0.00,WUHU21623XXSP,2013-02-08 07:11:00,
2013-02-08 02:16:00,34.9,27.7,0.00,North,0,0.0,0.0,75,0.00,,,0.00,WUHU21623XXSP,2013-02-08 07:16:00,
2013-02-08 02:21:00,34.9,27.7,0.00,North,0,0.0,0.0,75,0.00,,,0.00,WUHU21623XXSP,2013-02-08 07:21:00,
2013-02-08 02:26:00,34.9,27.7,0.00,North,0,0.0,0.0,75,0.00,,,0.00,WUHU21623XXSP,2013-02-08 07:26:00,
2013-02-08 02:31:00,34.5,27.8,0.00,North,0,0.0,0.0,76,0.00,,,0.00,WUHU21623XXSP,2013-02-08 07:31:00,
2013-02-08 02:36:00,34.3,27.5,0.00,North,0,0.0,0.0,76,0.00,,,0.00,WUHU21623XXSP,2013-02-08 07:36:00,
2013-02-08 02:41:00,34.3,27.6,0.00,North,0,0.0,0.0,76,0.00,,,0.00,WUHU21623XXSP,2013-02-08 07:41:00,
2013-02-08 02:46:00,34.3,27.8,0.00,North,0,0.0,0.0,77,0.00,,,0.00,WUHU21623XXSP,2013-02-08 07:46:00,
2013-02-08 02:51:00,34.3,27.8,0.00,North,0,0.0,0.0,77,0.00,,,0.00,WUHU21623XXSP,2013-02-08 07:51:00,
2013-02-08 02:56:00,34.3,27.8,0.00,North,0,0.0,0.0,77,0.00,,,0.00,WUHU21623XXSP,2013-02-08 07:56:00,
2013-02-08 03:01:00,34.3,27.8,0.00,North,0,0.0,0.0,77,0.00,,,0.00,WUHU21623XXSP,2013-02-08 08:01:00,
2013-02-08 03:06:00,34.2,27.9,0.00,North,0,0.0,0.0,78,0.00,,,0.00,WUHU21623XXSP,2013-02-08 08:06:00,
2013-02-08 03:11:00,34.2,27.9,0.00,North,0,0.0,0.0,78,0.00,,,0.00,WUHU21623XXSP,2013-02-08 08:11:00,
2013-02-08 03:16:00,34.2,27.9,0.00,North,0,0.0,0.0,78,0.00,,,0.00,WUHU21623XXSP,2013-02-08 08:16:00,
2013-02-08 03:21:00,34.0,28.1,0.00,North,0,0.0,0.0,79,0.00,,,0.00,WUHU21623XXSP,2013-02-08 08:21:00,
2013-02-08 03:26:00,34.0,28.1,0.00,North,0,0.0,0.0,79,0.00,,,0.00,WUHU21623XXSP,2013-02-08 08:26:00,
2013-02-08 03:31:00,34.0,28.1,0.00,North,0,0.0,0.0,79,0.00,,,0.00,WUHU21623XXSP,2013-02-08 08:31:00,
2013-02-08 03:36:00,34.0,28.1,0.00,North,0,0.0,0.0,79,0.00,,,0.00,WUHU21623XXSP,2013-02-08 08:36:00,
2013-02-08 03:41:00,34.0,28.1,0.00,North,0,0.0,0.0,79,0.00,,,0.00,WUHU21623XXSP,2013-02-08 08:41:00,
2013-02-08 03:46:00,34.0,28.4,0.00,North,0,0.0,0.0,80,0.00,,,0.00,WUHU21623XXSP,2013-02-08 08:46:00,
2013-02-08 03:51:00,34.0,28.4,0.00,North,0,0.0,0.0,80,0.00,,,0.00,WUHU21623XXSP,2013-02-08 08:51:00,
2013-02-08 03:56:00,34.0,28.4,0.00,North,0,0.0,0.0,80,0.00,,,0.00,WUHU21623XXSP,2013-02-08 08:56:00,
2013-02-08 04:01:00,34.0,28.4,0.00,North,0,0.0,0.0,80,0.00,,,0.00,WUHU21623XXSP,2013-02-08 09:01:00,
2013-02-08 04:06:00,34.0,28.4,0.00,North,0,0.0,0.0,80,0.00,,,0.00,WUHU21623XXSP,2013-02-08 09:06:00,
2013-02-08 04:11:00,34.0,28.4,0.00,North,0,0.0,0.0,80,0.00,,,0.00,WUHU21623XXSP,2013-02-08 09:11:00,
2013-02-08 04:16:00,34.0,28.4,0.00,North,0,0.0,0.0,80,0.00,,,0.00,WUHU21623XXSP,2013-02-08 09:16:00,
2013-02-08 04:21:00,34.0,28.4,0.00,North,0,0.0,0.0,80,0.00,,,0.00,WUHU21623XXSP,2013-02-08 09:21:00,
2013-02-08 04:26:00,34.0,28.4,0.00,North,0,0.0,0.0,80,0.00,,,0.00,WUHU21623XXSP,2013-02-08 09:26:00,
2013-02-08 04:31:00,34.0,28.4,0.00,North,0,0.0,0.0,80,0.00,,,0.00,WUHU21623XXSP,2013-02-08 09:31:00,
2013-02-08 04:36:00,34.0,28.4,0.00,North,0,0.0,0.0,80,0.00,,,0.00,WUHU21623XXSP,2013-02-08 09:36:00,
2013-02-08 04:41:00,34.0,28.4,0.00,North,0,0.0,0.0,80,0.00,,,0.00,WUHU21623XXSP,2013-02-08 09:41:00,
2013-02-08 04:46:00,34.0,28.4,0.00,North,0,0.0,0.0,80,0.00,,,0.00,WUHU21623XXSP,2013-02-08 09:46:00,
2013-02-08 04:51:00,34.0,28.7,0.00,North,0,0.0,0.0,81,0.00,,,0.00,WUHU21623XXSP,2013-02-08 09:51:00,
2013-02-08 04:56:00,34.0,28.7,0.00,North,0,0.0,0.0,81,0.00,,,0.00,WUHU21623XXSP,2013-02-08 09:56:00,
2013-02-08 05:01:00,34.0,28.7,0.00,North,0,0.0,0.0,81,0.00,,,0.00,WUHU21623XXSP,2013-02-08 10:01:00,
2013-02-08 05:06:00,34.0,28.7,0.00,North,0,0.0,0.0,81,0.00,,,0.00,WUHU21623XXSP,2013-02-08 10:06:00,
2013-02-08 05:11:00,34.0,28.7,0.00,North,0,0.0,0.0,81,0.00,,,0.00,WUHU21623XXSP,2013-02-08 10:11:00,
2013-02-08 05:16:00,34.0,28.7,0.00,North,0,0.0,0.0,81,0.00,,,0.00,WUHU21623XXSP,2013-02-08 10:16:00,
2013-02-08 05:21:00,34.0,28.7,0.00,North,0,0.0,0.0,81,0.00,,,0.00,WUHU21623XXSP,2013-02-08 10:21:00,
2013-02-08 05:26:00,34.0,28.7,0.00,North,0,0.0,0.0,81,0.00,,,0.00,WUHU21623XXSP,2013-02-08 10:26:00,
2013-02-08 05:31:00,34.0,28.7,0.00,North,0,0.0,0.0,81,0.00,,,0.00,WUHU21623XXSP,2013-02-08 10:31:00,
2013-02-08 05:36:00,34.0,28.7,0.00,North,0,0.0,0.0,81,0.00,,,0.00,WUHU21623XXSP,2013-02-08 10:36:00,
2013-02-08 05:41:00,34.0,28.7,0.00,North,0,0.0,0.0,81,0.00,,,0.00,WUHU21623XXSP,2013-02-08 10:41:00,
2013-02-08 05:46:00,34.0,29.0,0.00,North,0,0.0,0.0,82,0.00,,,0.00,WUHU21623XXSP,2013-02-08 10:46:00,
2013-02-08 05:51:00,34.0,29.0,0.00,North,0,0.0,0.0,82,0.00,,,0.00,WUHU21623XXSP,2013-02-08 10:51:00,
2013-02-08 05:56:00,33.8,28.8,0.00,North,0,0.0,0.0,82,0.00,,,0.00,WUHU21623XXSP,2013-02-08 10:56:00,
2013-02-08 06:01:00,33.8,28.8,0.00,North,0,0.0,0.0,82,0.00,,,0.00,WUHU21623XXSP,2013-02-08 11:01:00,
2013-02-08 06:06:00,33.8,28.8,0.00,North,0,0.0,0.0,82,0.00,,,0.00,WUHU21623XXSP,2013-02-08 11:06:00,
2013-02-08 06:26:00,33.8,28.8,0.00,North,0,0.0,0.0,82,0.00,,,0.00,WUHU21623XXSP,2013-02-08 11:26:00,
2013-02-08 06:31:00,34.0,28.8,0.00,North,0,0.0,0.0,82,0.00,,,0.00,WUHU21623XXSP,2013-02-08 11:31:00,
2013-02-08 06:36:00,34.0,29.0,0.00,North,0,0.0,0.0,82,0.00,,,0.00,WUHU21623XXSP,2013-02-08 11:36:00,
2013-02-08 06:41:00,34.0,29.0,0.00,North,0,0.0,0.0,82,0.00,,,0.00,WUHU21623XXSP,2013-02-08 11:41:00,
2013-02-08 06:46:00,34.0,29.0,0.00,North,0,0.0,0.0,82,0.00,,,0.00,WUHU21623XXSP,2013-02-08 11:46:00,
2013-02-08 06:52:00,34.0,29.0,0.00,North,0,0.0,0.0,82,0.00,,,0.00,WUHU21623XXSP,2013-02-08 11:52:00,
2013-02-08 06:57:00,34.0,29.0,0.00,North,0,0.0,0.0,82,0.00,,,0.00,WUHU21623XXSP,2013-02-08 11:57:00,
2013-02-08 07:02:00,34.0,29.0,0.00,North,0,0.0,0.0,82,0.00,,,0.00,WUHU21623XXSP,2013-02-08 12:02:00,
2013-02-08 07:07:00,34.0,29.0,0.00,North,0,0.0,0.0,82,0.00,,,0.00,WUHU21623XXSP,2013-02-08 12:07:00,
2013-02-08 07:12:00,34.0,29.0,0.00,North,0,0.0,0.0,82,0.00,,,0.00,WUHU21623XXSP,2013-02-08 12:12:00,
2013-02-08 07:17:00,34.0,29.3,0.00,North,0,0.0,0.0,83,0.00,,,0.00,WUHU21623XXSP,2013-02-08 12:17:00,
2013-02-08 07:22:00,34.0,29.3,0.00,North,0,0.0,0.0,83,0.00,,,0.00,WUHU21623XXSP,2013-02-08 12:22:00,
2013-02-08 07:27:00,34.0,29.3,0.00,North,0,0.0,0.0,83,0.00,,,0.00,WUHU21623XXSP,2013-02-08 12:27:00,
2013-02-08 07:32:00,34.0,29.3,0.00,North,0,0.0,0.0,83,0.00,,,0.00,WUHU21623XXSP,2013-02-08 12:32:00,
2013-02-08 07:37:00,34.0,29.3,0.00,North,0,0.0,0.0,83,0.00,,,0.00,WUHU21623XXSP,2013-02-08 12:37:00,
2013-02-08 07:42:00,34.2,29.4,0.00,North,0,0.0,0.0,83,0.00,,,0.00,WUHU21623XXSP,2013-02-08 12:42:00,
2013-02-08 07:47:00,34.2,29.4,0.00,North,0,0.0,0.0,83,0.00,,,0.00,WUHU21623XXSP,2013-02-08 12:47:00,
2013-02-08 07:52:00,34.2,29.4,0.00,North,0,0.0,0.0,83,0.00,,,0.00,WUHU21623XXSP,2013-02-08 12:52:00,
2013-02-08 07:57:00,34.2,29.4,0.00,North,0,0.0,0.0,83,0.00,,,0.00,WUHU21623XXSP,2013-02-08 12:57:00,
2013-02-08 08:02:00,34.3,29.6,0.00,North,0,0.0,0.0,83,0.00,,,0.00,WUHU21623XXSP,2013-02-08 13:02:00,
2013-02-08 08:07:00,34.3,29.6,0.00,North,0,0.0,0.0,83,0.00,,,0.00,WUHU21623XXSP,2013-02-08 13:07:00,
2013-02-08 08:12:00,34.3,29.6,0.00,North,0,0.0,0.0,83,0.00,,,0.00,WUHU21623XXSP,2013-02-08 13:12:00,
2013-02-08 08:17:00,34.3,29.6,0.00,North,0,0.0,0.0,83,0.00,,,0.00,WUHU21623XXSP,2013-02-08 13:17:00,
2013-02-08 08:22:00,34.3,29.6,0.00,North,0,0.0,0.0,83,0.00,,,0.00,WUHU21623XXSP,2013-02-08 13:22:00,
2013-02-08 08:27:00,34.5,30.1,0.00,North,0,0.0,0.0,84,0.00,,,0.00,WUHU21623XXSP,2013-02-08 13:27:00,
2013-02-08 08:32:00,34.7,30.3,0.00,North,0,0.0,0.0,84,0.00,,,0.00,WUHU21623XXSP,2013-02-08 13:32:00,
2013-02-08 08:37:00,34.9,30.5,0.00,North,0,0.0,0.0,84,0.00,,,0.00,WUHU21623XXSP,2013-02-08 13:37:00,
2013-02-08 08:42:00,35.2,30.8,0.00,North,0,0.0,0.0,84,0.00,,,0.00,WUHU21623XXSP,2013-02-08 13:42:00,
2013-02-08 08:47:00,35.2,30.8,0.00,North,0,0.0,0.0,84,0.00,,,0.00,WUHU21623XXSP,2013-02-08 13:47:00,
2013-02-08 08:52:00,35.4,31.0,0.00,North,0,0.0,0.0,84,0.00,,,0.00,WUHU21623XXSP,2013-02-08 13:52:00,
2013-02-08 08:57:00,35.4,31.0,0.00,North,0,0.0,0.0,84,0.00,,,0.00,WUHU21623XXSP,2013-02-08 13:57:00,
2013-02-08 09:02:00,35.6,31.2,0.00,North,0,0.0,0.0,84,0.00,,,0.00,WUHU21623XXSP,2013-02-08 14:02:00,
2013-02-08 09:07:00,36.0,31.5,0.00,North,0,0.0,0.0,84,0.00,,,0.00,WUHU21623XXSP,2013-02-08 14:07:00,
2013-02-08 09:12:00,36.3,31.9,0.00,North,0,0.0,0.0,84,0.00,,,0.00,WUHU21623XXSP,2013-02-08 14:12:00,
2013-02-08 09:17:00,36.5,32.1,0.00,North,0,0.0,0.0,84,0.00,,,0.00,WUHU21623XXSP,2013-02-08 14:17:00,
2013-02-08 09:22:00,36.7,32.3,0.00,North,0,0.0,0.0,84,0.00,,,0.00,WUHU21623XXSP,2013-02-08 14:22:00,
2013-02-08 09:27:00,37.2,33.1,0.00,North,0,0.0,0.0,85,0.00,,,0.00,WUHU21623XXSP,2013-02-08 14:27:00,
2013-02-08 09:32:00,37.6,33.4,0.00,North,0,0.0,0.0,85,0.00,,,0.00,WUHU21623XXSP,2013-02-08 14:32:00,
2013-02-08 09:37:00,38.1,34.0,0.00,North,0,0.0,0.0,85,0.00,,,0.00,WUHU21623XXSP,2013-02-08 14:37:00,
2013-02-08 09:42:00,38.5,34.3,0.00,North,0,0.0,0.0,85,0.00,,,0.00,WUHU21623XXSP,2013-02-08 14:42:00,
2013-02-08 09:47:00,39.0,34.9,0.00,North,0,0.0,0.0,85,0.00,,,0.00,WUHU21623XXSP,2013-02-08 14:47:00,
2013-02-08 09:53:00,39.6,35.4,0.00,North,0,0.0,0.0,85,0.00,,,0.00,WUHU21623XXSP,2013-02-08 14:53:00,
2013-02-08 09:58:00,39.9,35.6,0.00,North,0,0.0,0.0,85,0.00,,,0.00,WUHU21623XXSP,2013-02-08 14:58:00,
2013-02-08 10:03:00,40.5,36.6,0.00,North,0,0.0,0.0,86,0.00,,,0.00,WUHU21623XXSP,2013-02-08 15:03:00,
2013-02-08 10:08:00,40.8,36.9,0.00,North,0,0.0,0.0,86,0.00,,,0.00,WUHU21623XXSP,2013-02-08 15:08:00,
2013-02-08 10:13:00,41.0,37.1,0.00,North,0,0.0,0.0,86,0.00,,,0.00,WUHU21623XXSP,2013-02-08 15:13:00,
2013-02-08 10:18:00,41.4,37.1,0.00,North,0,0.0,0.0,85,0.00,,,0.00,WUHU21623XXSP,2013-02-08 15:18:00,
2013-02-08 10:23:00,41.4,37.1,0.00,North,0,0.0,0.0,85,0.00,,,0.00,WUHU21623XXSP,2013-02-08 15:23:00,
2013-02-08 10:28:00,41.4,37.1,0.00,North,0,0.0,0.0,85,0.00,,,0.00,WUHU21623XXSP,2013-02-08 15:28:00,
2013-02-08 10:33:00,41.5,37.3,0.00,North,0,0.0,0.0,85,0.00,,,0.00,WUHU21623XXSP,2013-02-08 15:33:00,
2013-02-08 10:38:00,41.4,37.1,0.00,North,0,0.0,0.0,85,0.00,,,0.00,WUHU21623XXSP,2013-02-08 15:38:00,
2013-02-08 10:43:00,41.5,37.3,0.00,North,0,0.0,0.0,85,0.00,,,0.00,WUHU21623XXSP,2013-02-08 15:43:00,
2013-02-08 10:48:00,41.5,37.3,0.00,North,0,0.0,0.0,85,0.00,,,0.00,WUHU21623XXSP,2013-02-08 15:48:00,
2013-02-08 10:53:00,41.5,37.0,0.00,North,0,0.0,0.0,84,0.00,,,0.00,WUHU21623XXSP,2013-02-08 15:53:00,
2013-02-08 10:58:00,41.7,37.2,0.00,North,0,0.0,0.0,84,0.00,,,0.00,WUHU21623XXSP,2013-02-08 15:58:00,
2013-02-08 11:03:00,41.7,37.2,0.00,North,0,0.0,0.0,84,0.00,,,0.00,WUHU21623XXSP,2013-02-08 16:03:00,
2013-02-08 11:08:00,41.9,37.4,0.00,North,0,0.0,0.0,84,0.00,,,0.00,WUHU21623XXSP,2013-02-08 16:08:00,
2013-02-08 11:13:00,42.1,37.5,0.00,North,0,0.0,0.0,84,0.00,,,0.00,WUHU21623XXSP,2013-02-08 16:13:00,
2013-02-08 11:18:00,42.6,38.1,0.00,North,0,0.0,0.0,84,0.00,,,0.00,WUHU21623XXSP,2013-02-08 16:18:00,
2013-02-08 11:23:00,42.6,38.1,0.00,North,0,0.0,0.0,84,0.00,,,0.00,WUHU21623XXSP,2013-02-08 16:23:00,
2013-02-08 11:28:00,43.0,38.4,0.00,North,0,0.0,0.0,84,0.00,,,0.00,WUHU21623XXSP,2013-02-08 16:28:00,
2013-02-08 11:33:00,43.0,38.4,0.00,North,0,0.0,0.0,84,0.00,,,0.00,WUHU21623XXSP,2013-02-08 16:33:00,
2013-02-08 11:38:00,43.0,38.4,0.00,North,0,0.0,0.0,84,0.00,,,0.00,WUHU21623XXSP,2013-02-08 16:38:00,
2013-02-08 11:43:00,43.3,38.8,0.00,North,0,0.0,0.0,84,0.00,,,0.00,WUHU21623XXSP,2013-02-08 16:43:00,
2013-02-08 11:48:00,43.3,38.5,0.00,North,0,0.0,0.0,83,0.00,,,0.00,WUHU21623XXSP,2013-02-08 16:48:00,
2013-02-08 11:53:00,43.5,38.7,0.00,North,0,0.0,0.0,83,0.00,,,0.00,WUHU21623XXSP,2013-02-08 16:53:00,
2013-02-08 11:58:00,43.5,38.7,0.00,North,0,0.0,0.0,83,0.00,,,0.00,WUHU21623XXSP,2013-02-08 16:58:00,
2013-02-08 12:03:00,43.5,38.4,0.00,North,0,0.0,0.0,82,0.00,,,0.00,WUHU21623XXSP,2013-02-08 17:03:00,
2013-02-08 12:08:00,43.7,38.6,0.00,North,0,0.0,0.0,82,0.00,,,0.00,WUHU21623XXSP,2013-02-08 17:08:00,
2013-02-08 12:13:00,43.9,38.7,0.00,North,0,0.0,0.0,82,0.00,,,0.00,WUHU21623XXSP,2013-02-08 17:13:00,
2013-02-08 12:18:00,44.1,38.9,0.00,North,0,0.0,0.0,82,0.00,,,0.00,WUHU21623XXSP,2013-02-08 17:18:00,
2013-02-08 12:23:00,44.1,38.9,0.00,North,0,0.0,0.0,82,0.00,,,0.00,WUHU21623XXSP,2013-02-08 17:23:00,
2013-02-08 12:28:00,44.1,38.9,0.00,North,0,0.0,0.0,82,0.00,,,0.00,WUHU21623XXSP,2013-02-08 17:28:00,
2013-02-08 12:33:00,44.1,38.6,0.00,North,0,0.0,0.0,81,0.00,,,0.00,WUHU21623XXSP,2013-02-08 17:33:00,
2013-02-08 12:38:00,44.2,39.1,0.00,North,0,0.0,0.0,82,0.00,,,0.00,WUHU21623XXSP,2013-02-08 17:38:00,
2013-02-08 12:43:00,44.2,39.1,0.00,North,0,0.0,0.0,82,0.00,,,0.00,WUHU21623XXSP,2013-02-08 17:43:00,
2013-02-08 12:48:00,44.4,39.0,0.00,North,0,0.0,0.0,81,0.00,,,0.00,WUHU21623XXSP,2013-02-08 17:48:00,
2013-02-08 12:53:00,44.4,39.0,0.00,North,0,0.0,0.0,81,0.00,,,0.00,WUHU21623XXSP,2013-02-08 17:53:00,
2013-02-08 12:58:00,44.4,39.0,0.00,North,0,0.0,0.0,81,0.00,,,0.00,WUHU21623XXSP,2013-02-08 17:58:00,
2013-02-08 13:03:00,44.6,39.1,0.00,North,0,0.0,0.0,81,0.00,,,0.00,WUHU21623XXSP,2013-02-08 18:03:00,
2013-02-08 13:08:00,44.8,39.3,0.00,North,0,0.0,0.0,81,0.00,,,0.00,WUHU21623XXSP,2013-02-08 18:08:00,
2013-02-08 13:13:00,44.8,39.3,0.00,North,0,0.0,0.0,81,0.00,,,0.00,WUHU21623XXSP,2013-02-08 18:13:00,
2013-02-08 13:18:00,45.0,39.2,0.00,North,0,0.0,0.0,80,0.00,,,0.00,WUHU21623XXSP,2013-02-08 18:18:00,
2013-02-08 13:24:00,45.1,39.2,0.00,North,0,0.0,0.0,80,0.00,,,0.00,WUHU21623XXSP,2013-02-08 18:24:00,
2013-02-08 13:29:00,45.3,39.6,0.00,North,0,0.0,0.0,80,0.00,,,0.00,WUHU21623XXSP,2013-02-08 18:29:00,
2013-02-08 13:34:00,46.0,40.3,0.00,North,0,0.0,0.0,80,0.00,,,0.00,WUHU21623XXSP,2013-02-08 18:34:00,
2013-02-08 13:39:00,46.2,40.5,0.00,North,0,0.0,0.0,80,0.00,,,0.00,WUHU21623XXSP,2013-02-08 18:39:00,
2013-02-08 13:44:00,46.6,40.5,0.00,North,0,0.0,0.0,79,0.00,,,0.00,WUHU21623XXSP,2013-02-08 18:44:00,
2013-02-08 13:49:00,46.6,40.1,0.00,North,0,0.0,0.0,78,0.00,,,0.00,WUHU21623XXSP,2013-02-08 18:49:00,
2013-02-08 13:54:00,46.4,40.0,0.00,North,0,0.0,0.0,78,0.00,,,0.00,WUHU21623XXSP,2013-02-08 18:54:00,
2013-02-08 13:59:00,46.6,40.1,0.00,North,0,0.0,0.0,78,0.00,,,0.00,WUHU21623XXSP,2013-02-08 18:59:00,
2013-02-08 14:04:00,46.6,39.8,0.00,North,0,0.0,0.0,77,0.00,,,0.00,WUHU21623XXSP,2013-02-08 19:04:00,
2013-02-08 14:09:00,46.8,39.9,0.00,North,0,0.0,0.0,77,0.00,,,0.00,WUHU21623XXSP,2013-02-08 19:09:00,
2013-02-08 14:14:00,47.1,40.6,0.00,North,0,0.0,0.0,78,0.00,,,0.00,WUHU21623XXSP,2013-02-08 19:14:00,
2013-02-08 14:19:00,48.0,41.4,0.00,North,0,0.0,0.0,78,0.00,,,0.00,WUHU21623XXSP,2013-02-08 19:19:00,
2013-02-08 14:24:00,48.7,41.8,0.00,North,0,0.0,0.0,77,0.00,,,0.00,WUHU21623XXSP,2013-02-08 19:24:00,
2013-02-08 14:29:00,48.9,41.6,0.00,North,0,0.0,0.0,76,0.00,,,0.00,WUHU21623XXSP,2013-02-08 19:29:00,
2013-02-08 14:34:00,49.1,41.8,0.00,North,0,0.0,0.0,76,0.00,,,0.00,WUHU21623XXSP,2013-02-08 19:34:00,
2013-02-08 14:39:00,49.8,42.2,0.00,North,0,0.0,0.0,75,0.00,,,0.00,WUHU21623XXSP,2013-02-08 19:39:00,
2013-02-08 14:44:00,50.2,42.2,0.00,North,0,0.0,0.0,74,0.00,,,0.00,WUHU21623XXSP,2013-02-08 19:44:00,
2013-02-08 14:49:00,50.4,42.4,0.00,North,0,0.0,0.0,74,0.00,,,0.00,WUHU21623XXSP,2013-02-08 19:49:00,
2013-02-08 14:54:00,50.7,42.4,0.00,North,0,0.0,0.0,73,0.00,,,0.00,WUHU21623XXSP,2013-02-08 19:54:00,
2013-02-08 14:59:00,50.5,42.2,0.00,North,0,0.0,0.0,73,0.00,,,0.00,WUHU21623XXSP,2013-02-08 19:59:00,
2013-02-08 15:04:00,50.5,42.2,0.00,North,0,0.0,0.0,73,0.00,,,0.00,WUHU21623XXSP,2013-02-08 20:04:00,
2013-02-08 15:09:00,50.5,41.9,0.00,North,0,0.0,0.0,72,0.00,,,0.00,WUHU21623XXSP,2013-02-08 20:09:00,
2013-02-08 15:14:00,50.4,41.7,0.00,North,0,0.0,0.0,72,0.00,,,0.00,WUHU21623XXSP,2013-02-08 20:14:00,
2013-02-08 15:19:00,50.5,42.2,0.00,North,0,0.0,0.0,73,0.00,,,0.00,WUHU21623XXSP,2013-02-08 20:19:00,
2013-02-08 15:24:00,50.7,42.0,0.00,North,0,0.0,0.0,72,0.00,,,0.00,WUHU21623XXSP,2013-02-08 20:24:00,
2013-02-08 15:29:00,50.7,42.0,0.00,North,0,0.0,0.0,72,0.00,,,0.00,WUHU21623XXSP,2013-02-08 20:29:00,
2013-02-08 15:34:00,50.9,41.9,0.00,North,0,0.0,0.0,71,0.00,,,0.00,WUHU21623XXSP,2013-02-08 20:34:00,
2013-02-08 15:39:00,51.4,42.8,0.00,North,0,0.0,0.0,71,0.00,,,0.00,WUHU21623XXSP,2013-02-08 20:39:00,
2013-02-08 15:44:00,52.0,42.6,0.00,North,0,0.0,0.0,70,0.00,,,0.00,WUHU21623XXSP,2013-02-08 20:44:00,
2013-02-08 15:49:00,52.0,42.6,0.00,North,0,0.0,0.0,70,0.00,,,0.00,WUHU21623XXSP,2013-02-08 20:49:00,
2013-02-08 15:54:00,52.5,43.1,0.00,North,0,0.0,0.0,70,0.00,,,0.00,WUHU21623XXSP,2013-02-08 20:54:00,
2013-02-08 15:59:00,52.9,43.0,0.00,North,0,0.0,0.0,69,0.00,,,0.00,WUHU21623XXSP,2013-02-08 20:59:00,
2013-02-08 16:04:00,52.5,42.3,0.00,North,0,0.0,0.0,68,0.00,,,0.00,WUHU21623XXSP,2013-02-08 21:04:00,
2013-02-08 16:09:00,52.0,42.4,0.00,North,0,0.0,0.0,69,0.00,,,0.00,WUHU21623XXSP,2013-02-08 21:09:00,
2013-02-08 16:15:00,51.4,41.8,0.00,North,0,0.0,0.0,69,0.00,,,0.00,WUHU21623XXSP,2013-02-08 21:15:00,
2013-02-08 16:20:00,51.1,41.3,0.00,North,0,0.0,0.0,69,0.00,,,0.00,WUHU21623XXSP,2013-02-08 21:20:00,
2013-02-08 16:25:00,50.7,40.9,0.00,North,0,0.0,0.0,69,0.00,,,0.00,WUHU21623XXSP,2013-02-08 21:25:00,
2013-02-08 16:30:00,50.4,40.6,0.00,North,0,0.0,0.0,69,0.00,,,0.00,WUHU21623XXSP,2013-02-08 21:30:00,
2013-02-08 16:35:00,50.2,40.8,0.00,North,0,0.0,0.0,70,0.00,,,0.00,WUHU21623XXSP,2013-02-08 21:35:00,
2013-02-08 16:40:00,49.8,40.6,0.00,North,0,0.0,0.0,70,0.00,,,0.00,WUHU21623XXSP,2013-02-08 21:40:00,
2013-02-08 16:45:00,49.6,40.6,0.00,North,0,0.0,0.0,71,0.00,,,0.00,WUHU21623XXSP,2013-02-08 21:45:00,
2013-02-08 16:50:00,49.6,40.6,0.00,North,0,0.0,0.0,71,0.00,,,0.00,WUHU21623XXSP,2013-02-08 21:50:00,
2013-02-08 16:55:00,49.3,40.3,0.00,North,0,0.0,0.0,71,0.00,,,0.00,WUHU21623XXSP,2013-02-08 21:55:00,
2013-02-08 17:00:00,49.1,40.1,0.00,North,0,0.0,0.0,71,0.00,,,0.00,WUHU21623XXSP,2013-02-08 22:00:00,
2013-02-08 17:05:00,48.9,40.4,0.00,North,0,0.0,0.0,72,0.00,,,0.00,WUHU21623XXSP,2013-02-08 22:05:00,
2013-02-08 17:10:00,48.9,40.2,0.00,North,0,0.0,0.0,72,0.00,,,0.00,WUHU21623XXSP,2013-02-08 22:10:00,
2013-02-08 17:15:00,48.7,40.1,0.00,North,0,0.0,0.0,72,0.00,,,0.00,WUHU21623XXSP,2013-02-08 22:15:00,
2013-02-08 17:20:00,48.7,40.1,0.00,North,0,0.0,0.0,72,0.00,,,0.00,WUHU21623XXSP,2013-02-08 22:20:00,
2013-02-08 17:25:00,48.6,39.5,0.00,North,0,0.0,0.0,70,0.00,,,0.00,WUHU21623XXSP,2013-02-08 22:25:00,
2013-02-08 17:30:00,48.4,38.6,0.00,North,0,0.0,0.0,69,0.00,,,0.00,WUHU21623XXSP,2013-02-08 22:30:00,
2013-02-08 17:35:00,48.0,37.5,0.00,North,0,0.0,0.0,67,0.00,,,0.00,WUHU21623XXSP,2013-02-08 22:35:00,
2013-02-08 17:40:00,47.8,37.4,0.00,North,0,0.0,0.0,66,0.00,,,0.00,WUHU21623XXSP,2013-02-08 22:40:00,
2013-02-08 17:45:00,47.5,36.6,0.00,North,0,0.0,0.0,66,0.00,,,0.00,WUHU21623XXSP,2013-02-08 22:45:00,
2013-02-08 17:50:00,47.1,35.1,0.00,North,0,0.0,0.0,63,0.00,,,0.00,WUHU21623XXSP,2013-02-08 22:50:00,
2013-02-08 17:55:00,46.9,34.6,0.00,North,0,0.0,0.0,62,0.00,,,0.00,WUHU21623XXSP,2013-02-08 22:55:00,
2013-02-08 18:00:00,46.6,34.4,0.00,North,0,0.0,0.0,62,0.00,,,0.00,WUHU21623XXSP,2013-02-08 23:00:00,
2013-02-08 18:05:00,46.2,33.5,0.00,North,0,0.0,0.0,61,0.00,,,0.00,WUHU21623XXSP,2013-02-08 23:05:00,
2013-02-08 18:10:00,45.9,33.2,0.00,North,0,0.0,0.0,61,0.00,,,0.00,WUHU21623XXSP,2013-02-08 23:10:00,
2013-02-08 18:15:00,45.5,33.0,0.00,North,0,0.0,0.0,61,0.00,,,0.00,WUHU21623XXSP,2013-02-08 23:15:00,
2013-02-08 18:20:00,45.1,32.5,0.00,North,0,0.0,0.0,61,0.00,,,0.00,WUHU21623XXSP,2013-02-08 23:20:00,
2013-02-08 18:25:00,45.0,32.5,0.00,North,0,0.0,0.0,61,0.00,,,0.00,WUHU21623XXSP,2013-02-08 23:25:00,
2013-02-08 18:30:00,44.8,32.2,0.00,North,0,0.0,0.0,61,0.00,,,0.00,WUHU21623XXSP,2013-02-08 23:30:00,
2013-02-08 18:35:00,44.4,31.8,0.00,North,0,0.0,0.0,61,0.00,,,0.00,WUHU21623XXSP,2013-02-08 23:35:00,
2013-02-08 18:40:00,44.4,31.8,0.00,North,0,0.0,0.0,61,0.00,,,0.00,WUHU21623XXSP,2013-02-08 23:40:00,
2013-02-08 18:45:00,44.2,31.7,0.00,North,0,0.0,0.0,61,0.00,,,0.00,WUHU21623XXSP,2013-02-08 23:45:00,
2013-02-08 18:50:00,43.9,31.7,0.00,North,0,0.0,0.0,62,0.00,,,0.00,WUHU21623XXSP,2013-02-08 23:50:00,
2013-02-08 18:55:00,43.9,31.3,0.00,North,0,0.0,0.0,61,0.00,,,0.00,WUHU21623XXSP,2013-02-08 23:55:00,
2013-02-08 19:00:00,43.7,31.1,0.00,North,0,0.0,0.0,61,0.00,,,0.00,WUHU21623XXSP,2013-02-09 00:00:00,
2013-02-08 19:05:00,43.5,31.5,0.00,North,0,0.0,0.0,62,0.00,,,0.00,WUHU21623XXSP,2013-02-09 00:05:00,
2013-02-08 19:10:00,43.5,31.3,0.00,North,0,0.0,0.0,62,0.00,,,0.00,WUHU21623XXSP,2013-02-09 00:10:00,
2013-02-08 19:15:00,43.5,31.3,0.00,North,0,0.0,0.0,62,0.00,,,0.00,WUHU21623XXSP,2013-02-09 00:15:00,
2013-02-08 19:20:00,43.3,31.2,0.00,North,0,0.0,0.0,62,0.00,,,0.00,WUHU21623XXSP,2013-02-09 00:20:00,
2013-02-08 19:25:00,43.2,31.0,0.00,North,0,0.0,0.0,62,0.00,,,0.00,WUHU21623XXSP,2013-02-09 00:25:00,
2013-02-08 19:30:00,43.0,31.0,0.00,North,0,0.0,0.0,62,0.00,,,0.00,WUHU21623XXSP,2013-02-09 00:30:00,
2013-02-08 19:35:00,42.6,30.5,0.00,North,0,0.0,0.0,62,0.00,,,0.00,WUHU21623XXSP,2013-02-09 00:35:00,
2013-02-08 19:40:00,42.6,30.5,0.00,North,0,0.0,0.0,62,0.00,,,0.00,WUHU21623XXSP,2013-02-09 00:40:00,
2013-02-08 19:45:00,42.6,30.5,0.00,North,0,0.0,0.0,62,0.00,,,0.00,WUHU21623XXSP,2013-02-09 00:45:00,
2013-02-08 19:50:00,42.6,30.5,0.00,North,0,0.0,0.0,62,0.00,,,0.00,WUHU21623XXSP,2013-02-09 00:50:00,
2013-02-08 19:55:00,42.4,30.3,0.00,North,0,0.0,0.0,62,0.00,,,0.00,WUHU21623XXSP,2013-02-09 00:55:00,
2013-02-08 20:00:00,42.3,30.1,0.00,North,0,0.0,0.0,62,0.00,,,0.00,WUHU21623XXSP,2013-02-09 01:00:00,
2013-02-08 20:05:00,42.1,30.0,0.00,North,0,0.0,0.0,62,0.00,,,0.00,WUHU21623XXSP,2013-02-09 01:05:00,
2013-02-08 20:10:00,41.9,29.4,0.00,North,0,0.0,0.0,61,0.00,,,0.00,WUHU21623XXSP,2013-02-09 01:10:00,
2013-02-08 20:15:00,41.7,29.2,0.00,North,0,0.0,0.0,61,0.00,,,0.00,WUHU21623XXSP,2013-02-09 01:15:00,
2013-02-08 20:20:00,41.5,28.7,0.00,North,0,0.0,0.0,60,0.00,,,0.00,WUHU21623XXSP,2013-02-09 01:20:00,
2013-02-08 20:25:00,41.5,28.7,0.00,North,0,0.0,0.0,60,0.00,,,0.00,WUHU21623XXSP,2013-02-09 01:25:00,
2013-02-08 20:30:00,41.4,28.5,0.00,North,0,0.0,0.0,60,0.00,,,0.00,WUHU21623XXSP,2013-02-09 01:30:00,
2013-02-08 20:35:00,41.2,28.4,0.00,North,0,0.0,0.0,60,0.00,,,0.00,WUHU21623XXSP,2013-02-09 01:35:00,
2013-02-08 20:40:00,41.2,28.4,0.00,North,0,0.0,0.0,60,0.00,,,0.00,WUHU21623XXSP,2013-02-09 01:40:00,
2013-02-08 20:45:00,41.2,27.9,0.00,North,0,0.0,0.0,59,0.00,,,0.00,WUHU21623XXSP,2013-02-09 01:45:00,
2013-02-08 20:50:00,40.8,27.6,0.00,North,0,0.0,0.0,59,0.00,,,0.00,WUHU21623XXSP,2013-02-09 01:50:00,
2013-02-08 20:55:00,40.8,28.0,0.00,North,0,0.0,0.0,60,0.00,,,0.00,WUHU21623XXSP,2013-02-09 01:55:00,
2013-02-08 21:00:00,40.6,27.4,0.00,North,0,0.0,0.0,59,0.00,,,0.00,WUHU21623XXSP,2013-02-09 02:00:00,
2013-02-08 21:05:00,40.5,27.2,0.00,North,0,0.0,0.0,59,0.00,,,0.00,WUHU21623XXSP,2013-02-09 02:05:00,
2013-02-08 21:11:00,40.3,27.2,0.00,North,0,0.0,0.0,59,0.00,,,0.00,WUHU21623XXSP,2013-02-09 02:11:00,
2013-02-08 21:16:00,40.3,27.1,0.00,North,0,0.0,0.0,59,0.00,,,0.00,WUHU21623XXSP,2013-02-09 02:16:00,
2013-02-08 21:21:00,40.3,27.1,0.00,North,0,0.0,0.0,59,0.00,,,0.00,WUHU21623XXSP,2013-02-09 02:21:00,
2013-02-08 21:26:00,40.1,27.3,0.00,North,0,0.0,0.0,60,0.00,,,0.00,WUHU21623XXSP,2013-02-09 02:26:00,
2013-02-08 21:31:00,39.9,27.1,0.00,North,0,0.0,0.0,60,0.00,,,0.00,WUHU21623XXSP,2013-02-09 02:31:00,
2013-02-08 21:35:00,39.7,27.0,0.00,North,0,0.0,0.0,60,0.00,,,0.00,WUHU21623XXSP,2013-02-09 02:35:00,
2013-02-08 21:40:00,39.6,26.8,0.00,North,0,0.0,0.0,60,0.00,,,0.00,WUHU21623XXSP,2013-02-09 02:40:00,
2013-02-08 21:45:00,39.4,26.6,0.00,North,0,0.0,0.0,60,0.00,,,0.00,WUHU21623XXSP,2013-02-09 02:45:00,
2013-02-08 21:50:00,39.4,26.6,0.00,North,0,0.0,0.0,60,0.00,,,0.00,WUHU21623XXSP,2013-02-09 02:50:00,
2013-02-08 21:55:00,39.4,26.6,0.00,North,0,0.0,0.0,60,0.00,,,0.00,WUHU21623XXSP,2013-02-09 02:55:00,
2013-02-08 22:00:00,39.4,26.6,0.00,North,0,0.0,0.0,60,0.00,,,0.00,WUHU21623XXSP,2013-02-09 03:00:00,
2013-02-08 22:05:00,39.4,26.6,0.00,North,0,0.0,0.0,60,0.00,,,0.00,WUHU21623XXSP,2013-02-09 03:05:00,
2013-02-08 22:10:00,39.4,26.6,0.00,North,0,0.0,0.0,60,0.00,,,0.00,WUHU21623XXSP,2013-02-09 03:10:00,
2013-02-08 22:15:00,39.4,26.6,0.00,North,0,0.0,0.0,60,0.00,,,0.00,WUHU21623XXSP,2013-02-09 03:15:00,
2013-02-08 22:20:00,39.4,26.1,0.00,North,0,0.0,0.0,59,0.00,,,0.00,WUHU21623XXSP,2013-02-09 03:20:00,
2013-02-08 22:25:00,39.0,25.8,0.00,North,0,0.0,0.0,59,0.00,,,0.00,WUHU21623XXSP,2013-02-09 03:25:00,
2013-02-08 22:30:00,39.0,25.8,0.00,North,0,0.0,0.0,59,0.00,,,0.00,WUHU21623XXSP,2013-02-09 03:30:00,
2013-02-08 22:35:00,38.8,25.7,0.00,North,0,0.0,0.0,59,0.00,,,0.00,WUHU21623XXSP,2013-02-09 03:35:00,
2013-02-08 22:40:00,38.8,26.1,0.00,North,0,0.0,0.0,60,0.00,,,0.00,WUHU21623XXSP,2013-02-09 03:40:00,
2013-02-08 22:45:00,38.5,25.8,0.00,North,0,0.0,0.0,60,0.00,,,0.00,WUHU21623XXSP,2013-02-09 03:45:00,
2013-02-08 22:50:00,38.3,25.6,0.00,North,0,0.0,0.0,60,0.00,,,0.00,WUHU21623XXSP,2013-02-09 03:50:00,
2013-02-08 22:55:00,38.3,25.6,0.00,North,0,0.0,0.0,60,0.00,,,0.00,WUHU21623XXSP,2013-02-09 03:55:00,
2013-02-08 23:00:00,38.3,25.6,0.00,North,0,0.0,0.0,60,0.00,,,0.00,WUHU21623XXSP,2013-02-09 04:00:00,
2013-02-08 23:05:00,38.3,25.6,0.00,North,0,0.0,0.0,60,0.00,,,0.00,WUHU21623XXSP,2013-02-09 04:05:00,
2013-02-08 23:10:00,38.3,25.6,0.00,North,0,0.0,0.0,60,0.00,,,0.00,WUHU21623XXSP,2013-02-09 04:10:00,
2013-02-08 23:15:00,38.1,25.4,0.00,North,0,0.0,0.0,60,0.00,,,0.00,WUHU21623XXSP,2013-02-09 04:15:00,
2013-02-08 23:20:00,38.1,25.0,0.00,North,0,0.0,0.0,59,0.00,,,0.00,WUHU21623XXSP,2013-02-09 04:20:00,
2013-02-08 23:25:00,38.1,25.0,0.00,North,0,0.0,0.0,59,0.00,,,0.00,WUHU21623XXSP,2013-02-09 04:25:00,
2013-02-08 23:30:00,37.9,24.9,0.00,North,0,0.0,0.0,59,0.00,,,0.00,WUHU21623XXSP,2013-02-09 04:30:00,
2013-02-08 23:35:00,38.1,25.0,0.00,North,0,0.0,0.0,59,0.00,,,0.00,WUHU21623XXSP,2013-02-09 04:35:00,
2013-02-08 23:41:00,38.1,25.0,0.00,North,0,0.0,0.0,59,0.00,,,0.00,WUHU21623XXSP,2013-02-09 04:41:00,
2013-02-08 23:46:00,37.9,24.9,0.00,North,0,0.0,0.0,59,0.00,,,0.00,WUHU21623XXSP,2013-02-09 04:46:00,
2013-02-08 23:51:00,37.9,24.9,0.00,North,0,0.0,0.0,59,0.00,,,0.00,WUHU21623XXSP,2013-02-09 04:51:00,
2013-02-08 23:56:00,37.9,24.9,0.00,North,0,0.0,0.0,59,0.00,,,0.00,WUHU21623XXSP,2013-02-09 04:56:00,